Location: Black Forest
(43.4794°N, 75.0081°W)
Time: 01:47:03
(UTC-05:00)

ISS - Visible Passes

Search period start: 03 December 2016 00:00
Search period end: 13 December 2016 00:00
Orbit: 401 x 410 km, 51.6° (Epoch: 03 December)

Date Brightness Start Highest point End Pass type
(mag) Time Alt. Az. Time Alt. Az. Time Alt. Az.
03 Dec -3.4 17:44:26 10° WSW 17:47:44 88° NNW 17:49:07 32° NE visible
04 Dec -2.9 16:52:39 10° SW 16:55:51 51° SE 16:59:05 10° ENE visible
04 Dec -1.7 18:29:30 10° W 18:32:02 29° NW 18:32:02 29° NW visible
05 Dec -2.5 17:37:16 10° W 17:40:26 44° NNW 17:42:13 22° NE visible
06 Dec -1.4 18:22:41 10° WNW 18:25:03 22° NNW 18:25:03 22° NNW visible
07 Dec -1.8 17:30:20 10° W 17:33:13 28° NNW 17:35:09 16° NNE visible
08 Dec -1.3 18:15:46 10° NW 18:17:55 19° NNW 18:17:55 19° NNW visible
09 Dec -1.5 17:23:27 10° WNW 17:26:04 21° N 17:28:00 14° NE visible
09 Dec -0.1 19:00:40 10° NW 19:00:40 10° NW 19:00:40 10° NW visible
10 Dec -1.4 18:08:36 10° NW 18:10:45 20° N 18:10:45 20° N visible
11 Dec -1.5 17:16:25 10° NW 17:18:53 19° N 17:20:52 13° NE visible
11 Dec -0.4 18:53:07 10° NW 18:53:32 13° NW 18:53:32 13° NW visible
12 Dec -1.8 18:01:10 10° NW 18:03:41 24° N 18:03:41 24° N visible
